| time (UTC) | temp F | wind direction | speed knots | gust knots | rain 1hr in | rain 24hr in | rain mn in | humidity % | barometer mb |
| 20260503184537 | 57 | 316 | 11.3 | 20.0 | 0.00 | 0.00 | 0.00 | 43 | 1001.6 |
| 20260503183102 | 58 | 314 | 12.2 | 18.2 | 0.00 | 0.00 | 0.00 | 44 | 1001.7 |
| 20260503181608 | 57 | 323 | 13.9 | 22.6 | 0.00 | 0.00 | 0.00 | 48 | 1001.7 |
| 20260503180043 | 58 | 311 | 14.8 | 21.7 | 0.00 | 0.00 | 0.00 | 46 | 1002.1 |
| 20260503174542 | 58 | 315 | 16.5 | 25.2 | 0.00 | 0.00 | 0.00 | 52 | 1002.0 |
| 20260503173039 | 58 | 294 | 16.5 | 22.6 | 0.00 | 0.00 | 0.00 | 54 | 1002.0 |
| 20260503171537 | 57 | 303 | 16.5 | 21.7 | 0.00 | 0.00 | 0.00 | 55 | 1001.9 |
| 20260503081538 | 45 | 57 | 0.9 | 5.2 | 0.00 | 0.00 | 0.00 | 79 | 1004.2 |
| 20260503071545 | 46 | 182 | 4.3 | 8.7 | 0.00 | 0.00 | 0.00 | 76 | 1004.7 |
| 20260503060107 | 47 | 286 | 9.6 | 13.0 | 0.00 | 0.00 | 0.00 | 70 | 1005.1 |
| 20260503054544 | 48 | 284 | 10.4 | 12.2 | 0.00 | 0.00 | 0.00 | 68 | 1005.6 |
| 20260503053039 | 49 | 304 | 8.7 | 12.2 | 0.00 | 0.00 | 0.00 | 71 | 1005.6 |
| 20260503051539 | 51 | 324 | 11.3 | 18.2 | 0.00 | 0.00 | 0.00 | 67 | 1005.6 |
| 20260503050039 | 52 | 311 | 13.0 | 16.5 | 0.00 | 0.00 | 0.00 | 64 | 1005.6 |
| 20260503044542 | 46 | 302 | 2.6 | 8.7 | 0.00 | 0.00 | 0.00 | 73 | 1005.7 |
| 20260503043045 | 44 | 0 | 0.0 | 2.6 | 0.00 | 0.00 | 0.00 | 72 | 1005.6 |
| 20260503041544 | 44 | 209 | 0.9 | 3.5 | 0.00 | 0.00 | 0.00 | 72 | 1005.6 |
| 20260503040042 | 43 | 202 | 2.6 | 4.3 | 0.00 | 0.00 | 0.00 | 74 | 1005.7 |
| 20260503034538 | 43 | 202 | 1.7 | 3.5 | 0.00 | 0.00 | 0.00 | 75 | 1005.8 |
| 20260503033054 | 43 | 202 | 0.0 | 2.6 | 0.00 | 0.00 | 0.00 | 75 | 1006.0 |
| 20260503031543 | 43 | 0 | 0.0 | 3.5 | 0.00 | 0.00 | 0.00 | 77 | 1006.2 |
| 20260503030043 | 44 | 165 | 1.7 | 3.5 | 0.00 | 0.00 | 0.00 | 74 | 1006.5 |
| 20260503024544 | 45 | 165 | 0.9 | 3.5 | 0.00 | 0.00 | 0.00 | 67 | 1006.7 |
| 20260503023037 | 45 | 0 | 0.0 | 0.9 | 0.00 | 0.00 | 0.00 | 62 | 1006.8 |
| 20260503021537 | 44 | 0 | 0.0 | 1.7 | 0.00 | 0.00 | 0.00 | 65 | 1007.0 |
| 20260503020045 | 44 | 319 | 0.9 | 1.7 | 0.00 | 0.00 | 0.00 | 65 | 1007.0 |
| 20260503014544 | 43 | 319 | 0.9 | 2.6 | 0.00 | 0.00 | 0.00 | 67 | 1007.1 |
| 20260503013050 | 43 | 319 | 1.7 | 2.6 | 0.00 | 0.00 | 0.00 | 68 | 1007.2 |
| 20260503011547 | 43 | 0 | 0.0 | 2.6 | 0.00 | 0.00 | 0.00 | 67 | 1007.3 |
| 20260503010115 | 43 | 319 | 1.7 | 3.5 | 0.00 | 0.00 | 0.00 | 65 | 1007.4 |
| 20260503004545 | 43 | 310 | 1.7 | 3.5 | 0.00 | 0.00 | 0.00 | 68 | 1007.6 |
| 20260503003044 | 42 | 341 | 3.5 | 4.3 | 0.00 | 0.00 | 0.00 | 72 | 1007.8 |
| 20260503001543 | 43 | 328 | 0.0 | 2.6 | 0.00 | 0.00 | 0.00 | 71 | 1008.0 |
| 20260503000043 | 42 | 344 | 1.7 | 5.2 | 0.00 | 0.00 | 0.00 | 75 | 1008.2 |
| 20260502234546 | 44 | 309 | 0.9 | 3.5 | 0.00 | 0.00 | 0.00 | 68 | 1008.6 |
| 20260502233047 | 44 | 304 | 1.7 | 3.5 | 0.00 | 0.00 | 0.00 | 69 | 1008.5 |
| 20260502231546 | 46 | 355 | 2.6 | 5.2 | 0.00 | 0.00 | 0.00 | 67 | 1008.5 |
| 20260502230045 | 50 | 321 | 2.6 | 8.7 | 0.00 | 0.00 | 0.00 | 51 | 1008.6 |
| 20260502224544 | 48 | 107 | 1.7 | 7.0 | 0.00 | 0.00 | 0.00 | 48 | 1008.7 |
| 20260502223046 | 51 | 282 | 2.6 | 6.1 | 0.00 | 0.00 | 0.00 | 49 | 1009.1 |
| 20260502221545 | 52 | 90 | 5.2 | 9.6 | 0.00 | 0.00 | 0.00 | 38 | 1009.2 |
| 20260502220049 | 52 | 128 | 5.2 | 10.4 | 0.00 | 0.00 | 0.00 | 39 | 1009.4 |
| 20260502214559 | 52 | 117 | 6.1 | 9.6 | 0.00 | 0.00 | 0.00 | 38 | 1009.4 |
| 20260502213044 | 51 | 119 | 7.0 | 11.3 | 0.00 | 0.00 | 0.00 | 39 | 1009.6 |
| 20260502211547 | 52 | 109 | 7.0 | 10.4 | 0.00 | 0.00 | 0.00 | 38 | 1009.9 |
| 20260502210048 | 52 | 90 | 7.8 | 11.3 | 0.00 | 0.00 | 0.00 | 37 | 1010.1 |
| 20260502204541 | 51 | 119 | 8.7 | 13.9 | 0.00 | 0.00 | 0.00 | 38 | 1010.3 |
| 20260502203059 | 51 | 117 | 7.8 | 12.2 | 0.00 | 0.00 | 0.00 | 39 | 1010.5 |
| 20260502201548 | 52 | 122 | 10.4 | 13.9 | 0.00 | 0.00 | 0.00 | 37 | 1010.8 |
| 20260502200045 | 51 | 101 | 7.8 | 13.0 | 0.00 | 0.00 | 0.00 | 41 | 1011.1 |
| 20260502194543 | 52 | 131 | 8.7 | 12.2 | 0.00 | 0.00 | 0.00 | 38 | 1011.4 |
| 20260502193046 | 52 | 128 | 7.8 | 11.3 | 0.00 | 0.00 | 0.00 | 42 | 1011.5 |
| 20260502191541 | 52 | 115 | 10.4 | 13.0 | 0.00 | 0.00 | 0.00 | 40 | 1011.7 |
| 20260502190038 | 51 | 98 | 4.3 | 10.4 | 0.00 | 0.00 | 0.00 | 42 | 1011.9 |